QPF
0.00 0.00 0.00 0.00 0.00 0.00 0.00 0.00 0.00 0.00 0.00 0.00 0.00 0.00 0.00 0.00 0.00 0.00 0.00 0.00 0.00 0.00 0.00 0.00 0.01 0.01 0.01 0.01 0.02 0.02 0.02 0.02 0.02 0.02 0.02 0.03 0.04 0.04
0.00 0.00 0.00 0.00 0.00 0.00 0.00 0.00 0.00 0.00 0.00 0.00 0.00 0.00 0.00 0.00 0.00 0.00 0.00 0.00 0.00 0.00 0.00 0.00 0.00 0.01 0.01 0.01 0.01 0.02 0.02 0.02 0.03 0.03 0.03 0.04 0.04 0.05
0.00 0.00 0.00 0.00 0.00 0.00 0.00 0.00 0.00 0.00 0.01 0.00 0.00 0.00 0.00 0.00 0.00 0.00 0.00 0.00 0.00 0.00 0.00 0.00 0.00 0.01 0.01 0.01 0.01 0.02 0.02 0.02 0.02 0.03 0.03 0.04 0.04 0.04
0.00 0.00 0.00 0.00 0.00 0.00 0.00 0.00 0.00 0.01 0.01 0.01 0.00 0.00 0.00 0.00 0.00 0.00 0.00 0.00 0.00 0.00 0.00 0.00 0.00 0.01 0.01 0.01 0.01 0.01 0.01 0.02 0.02 0.02 0.02 0.03 0.03 0.04
0.00 0.00 0.00 0.00 0.00 0.00 0.00 0.01 0.01 0.01 0.01 0.02 0.01 0.00 0.00 0.00 0.00 0.00 0.00 0.00 0.00 0.00 0.00 0.00 0.00 0.00 0.00 0.01 0.01 0.01 0.01 0.01 0.01 0.01 0.02 0.02 0.03 0.03
0.00 0.00 0.00 0.00 0.00 0.00 0.01 0.01 0.01 0.02 0.02 0.02 0.01 0.00 0.00 0.00 0.00 0.00 0.00 0.00 0.00 0.00 0.00 0.00 0.00 0.00 0.00 0.00 0.01 0.01 0.01 0.01 0.01 0.01 0.02 0.02 0.02 0.03
0.00 0.00 0.00 0.00 0.00 0.01 0.01 0.01 0.02 0.03 0.03 0.03 0.02 0.01 0.00 0.00 0.01 0.00 0.00 0.00 0.00 0.00 0.00 0.00 0.00 0.00 0.00 0.00 0.00 0.00 0.00 0.00 0.01 0.01 0.02 0.02 0.02 0.03
0.00 0.00 0.00 0.00 0.01 0.01 0.02 0.03 0.03 0.03 0.03 0.03 0.02 0.01 0.00 0.00 0.00 0.01 0.01 0.01 0.01 0.00 0.00 0.00 0.00 0.00 0.00 0.00 0.00 0.00 0.00 0.01 0.01 0.02 0.02 0.03 0.03 0.04
0.00 0.00 0.00 0.00 0.01 0.02 0.02 0.04 0.06 0.07 0.05 0.04 0.04 0.02 0.00 0.00 0.01 0.02 0.02 0.01 0.01 0.00 0.00 0.01 0.00 0.00 0.00 0.00 0.00 0.00 0.00 0.01 0.01 0.02 0.02 0.02 0.03 0.03
0.00 0.00 0.00 0.01 0.01 0.02 0.02 0.03 0.03 0.04 0.06 0.07 0.07 0.03 0.01 0.01 0.01 0.02 0.03 0.03 0.02 0.00 0.01 0.01 0.00 0.00 0.00 0.00 0.00 0.00 0.01 0.01 0.01 0.02 0.02 0.03 0.03 0.04
0.00 0.00 0.00 0.01 0.01 0.02 0.05 0.04 0.02 0.01 0.01 0.04 0.07 0.06 0.03 0.02 0.03 0.05 0.06 0.05 0.03 0.00 0.00 0.01 0.00 0.00 0.00 0.00 0.00 0.00 0.01 0.01 0.01 0.01 0.02 0.02 0.03 0.03
0.01 0.01 0.01 0.01 0.01 0.03 0.07 0.06 0.03 0.01 0.01 0.02 0.04 0.06 0.06 0.04 0.04 0.05 0.05 0.04 0.02 0.01 0.00 0.00 0.00 0.00 0.01 0.00 0.00 0.00 0.00 0.00 0.00 0.01 0.01 0.01 0.02 0.03
0.01 0.01 0.01 0.01 0.03 0.04 0.07 0.07 0.04 0.02 0.02 0.03 0.03 0.02 0.03 0.04 0.03 0.03 0.03 0.02 0.01 0.01 0.00 0.00 0.01 0.01 0.02 0.01 0.00 0.00 0.00 0.00 0.00 0.00 0.00 0.00 0.01 0.02
0.02 0.01 0.01 0.01 0.03 0.05 0.07 0.08 0.05 0.06 0.08 0.06 0.04 0.02 0.01 0.02 0.02 0.01 0.02 0.01 0.01 0.00 0.00 0.01 0.01 0.01 0.02 0.02 0.00 0.00 0.00 0.00 0.00 0.00 0.00 0.00 0.01 0.01
0.02 0.02 0.02 0.03 0.04 0.05 0.06 0.07 0.08 0.09 0.12 0.07 0.03 0.01 0.00 0.00 0.01 0.01 0.02 0.01 0.01 0.01 0.01 0.01 0.01 0.01 0.02 0.03 0.01 0.00 0.00 0.00 0.00 0.00 0.01 0.01 0.01 0.01
0.03 0.04 0.05 0.05 0.05 0.05 0.04 0.05 0.08 0.10 0.09 0.05 0.02 0.01 0.01 0.01 0.02 0.01 0.01 0.01 0.02 0.01 0.01 0.01 0.01 0.01 0.02 0.02 0.01 0.01 0.00 0.00 0.00 0.01 0.01 0.01 0.01 0.01
0.04 0.05 0.06 0.07 0.07 0.07 0.06 0.05 0.06 0.08 0.08 0.06 0.03 0.02 0.02 0.02 0.01 0.01 0.01 0.01 0.01 0.01 0.00 0.00 0.00 0.01 0.01 0.02 0.02 0.01 0.00 0.00 0.00 0.01 0.02 0.02 0.01 0.01
0.07 0.07 0.06 0.05 0.05 0.06 0.06 0.05 0.04 0.05 0.05 0.04 0.03 0.02 0.02 0.01 0.01 0.01 0.01 0.01 0.01 0.00 0.00 0.00 0.01 0.01 0.01 0.01 0.01 0.01 0.01 0.01 0.01 0.01 0.02 0.03 0.01 0.01
0.07 0.07 0.05 0.04 0.04 0.04 0.04 0.03 0.03 0.02 0.03 0.03 0.03 0.02 0.02 0.01 0.01 0.01 0.01 0.01 0.01 0.01 0.00 0.01 0.01 0.03 0.03 0.01 0.00 0.00 0.01 0.02 0.02 0.02 0.02 0.02 0.01 0.00
0.05 0.05 0.05 0.04 0.03 0.03 0.03 0.03 0.03 0.03 0.03 0.03 0.03 0.02 0.02 0.02 0.01 0.01 0.01 0.01 0.01 0.01 0.01 0.01 0.01 0.02 0.04 0.03 0.02 0.00 0.01 0.03 0.03 0.02 0.01 0.01 0.01 0.00
0.03 0.03 0.03 0.03 0.03 0.03 0.03 0.03 0.03 0.02 0.02 0.02 0.02 0.02 0.01 0.01 0.01 0.01 0.01 0.01 0.01 0.01 0.01 0.01 0.01 0.01 0.03 0.04 0.03 0.01 0.00 0.01 0.02 0.04 0.03 0.03 0.02 0.01
0.02 0.02 0.02 0.03 0.03 0.03 0.03 0.02 0.02 0.02 0.02 0.02 0.02 0.01 0.01 0.01 0.01 0.01 0.01 0.01 0.01 0.01 0.01 0.01 0.01 0.01 0.03 0.04 0.03 0.01 0.00 0.00 0.01 0.01 0.02 0.04 0.04 0.02
0.02 0.02 0.03 0.03 0.03 0.03 0.03 0.03 0.02 0.02 0.01 0.01 0.01 0.01 0.01 0.01 0.01 0.01 0.01 0.01 0.01 0.01 0.01 0.01 0.01 0.01 0.02 0.03 0.03 0.01 0.01 0.01 0.01 0.01 0.00 0.00 0.01 0.01
MSLP
1012.31 1012.72 1013.16 1013.58 1013.95 1014.26 1014.49 1014.65 1014.77 1014.87 1014.98 1015.12 1015.29 1015.49 1015.71 1015.93 1016.13 1016.28 1016.40 1016.47 1016.50 1016.52 1016.53 1016.53 1016.52 1016.50 1016.46 1016.39 1016.27 1016.11 1015.92 1015.71 1015.50 1015.30 1015.12 1014.97 1014.82 1014.69
1010.74 1011.13 1011.55 1011.98 1012.38 1012.73 1013.02 1013.26 1013.47 1013.67 1013.88 1014.10 1014.36 1014.62 1014.89 1015.14 1015.35 1015.51 1015.62 1015.68 1015.70 1015.70 1015.70 1015.70 1015.69 1015.68 1015.64 1015.56 1015.44 1015.27 1015.06 1014.82 1014.59 1014.36 1014.16 1013.99 1013.84 1013.69
1009.21 1009.55 1009.93 1010.34 1010.74 1011.12 1011.46 1011.78 1012.08 1012.37 1012.69 1013.02 1013.36 1013.71 1014.04 1014.32 1014.55 1014.72 1014.81 1014.85 1014.85 1014.83 1014.81 1014.79 1014.78 1014.76 1014.72 1014.64 1014.51 1014.33 1014.11 1013.86 1013.60 1013.35 1013.13 1012.93 1012.76 1012.59
1007.71 1007.99 1008.33 1008.71 1009.10 1009.49 1009.88 1010.25 1010.63 1011.03 1011.44 1011.87 1012.31 1012.73 1013.12 1013.45 1013.70 1013.87 1013.96 1013.98 1013.96 1013.92 1013.87 1013.84 1013.81 1013.77 1013.72 1013.64 1013.51 1013.32 1013.10 1012.84 1012.56 1012.29 1012.04 1011.82 1011.61 1011.39
1006.26 1006.49 1006.78 1007.13 1007.51 1007.91 1008.32 1008.75 1009.19 1009.66 1010.16 1010.67 1011.19 1011.68 1012.13 1012.50 1012.78 1012.96 1013.05 1013.07 1013.03 1012.97 1012.91 1012.85 1012.80 1012.75 1012.69 1012.60 1012.46 1012.28 1012.05 1011.78 1011.49 1011.20 1010.92 1010.66 1010.40 1010.14
1004.90 1005.08 1005.33 1005.65 1006.02 1006.41 1006.84 1007.30 1007.79 1008.31 1008.86 1009.43 1010.01 1010.55 1011.05 1011.46 1011.77 1011.97 1012.08 1012.11 1012.07 1012.00 1011.93 1011.85 1011.79 1011.73 1011.65 1011.55 1011.41 1011.21 1010.97 1010.70 1010.40 1010.08 1009.77 1009.47 1009.16 1008.84
1003.64 1003.78 1004.01 1004.31 1004.66 1005.05 1005.47 1005.94 1006.44 1006.98 1007.56 1008.16 1008.76 1009.34 1009.86 1010.31 1010.65 1010.90 1011.04 1011.09 1011.07 1011.02 1010.95 1010.87 1010.79 1010.71 1010.62 1010.50 1010.34 1010.14 1009.89 1009.60 1009.28 1008.94 1008.59 1008.24 1007.88 1007.51
1002.51 1002.62 1002.83 1003.10 1003.43 1003.81 1004.22 1004.67 1005.16 1005.68 1006.25 1006.84 1007.45 1008.03 1008.58 1009.06 1009.44 1009.73 1009.92 1010.02 1010.05 1010.03 1009.97 1009.90 1009.81 1009.72 1009.61 1009.46 1009.28 1009.05 1008.78 1008.47 1008.12 1007.75 1007.37 1006.97 1006.56 1006.13
1001.47 1001.57 1001.76 1002.02 1002.33 1002.67 1003.05 1003.47 1003.91 1004.40 1004.93 1005.49 1006.07 1006.65 1007.21 1007.72 1008.15 1008.50 1008.75 1008.92 1009.01 1009.03 1009.00 1008.94 1008.86 1008.75 1008.61 1008.43 1008.21 1007.95 1007.65 1007.31 1006.93 1006.52 1006.09 1005.65 1005.18 1004.70
1000.51 1000.59 1000.76 1001.00 1001.28 1001.60 1001.94 1002.30 1002.69 1003.12 1003.59 1004.11 1004.65 1005.22 1005.79 1006.32 1006.81 1007.22 1007.55 1007.80 1007.96 1008.04 1008.05 1008.01 1007.93 1007.80 1007.63 1007.41 1007.15 1006.85 1006.50 1006.12 1005.70 1005.25 1004.78 1004.28 1003.76 1003.22
999.57 999.63 999.78 1000.00 1000.25 1000.53 1000.83 1001.14 1001.47 1001.84 1002.26 1002.72 1003.23 1003.79 1004.36 1004.93 1005.47 1005.95 1006.37 1006.70 1006.93 1007.08 1007.14 1007.12 1007.03 1006.89 1006.68 1006.42 1006.11 1005.76 1005.36 1004.93 1004.46 1003.96 1003.44 1002.89 1002.31 1001.71
998.59 998.64 998.77 998.97 999.20 999.45 999.71 999.97 1000.26 1000.58 1000.95 1001.37 1001.86 1002.41 1003.00 1003.60 1004.19 1004.75 1005.25 1005.66 1005.97 1006.17 1006.28 1006.28 1006.20 1006.03 1005.78 1005.48 1005.11 1004.70 1004.25 1003.76 1003.24 1002.69 1002.10 1001.49 1000.86 1000.20
997.55 997.59 997.71 997.89 998.11 998.34 998.58 998.82 999.08 999.37 999.71 1000.12 1000.60 1001.15 1001.76 1002.41 1003.05 1003.67 1004.24 1004.72 1005.10 1005.36 1005.50 1005.52 1005.43 1005.24 1004.97 1004.61 1004.19 1003.72 1003.20 1002.65 1002.07 1001.45 1000.81 1000.14 999.45 998.73
996.48 996.51 996.63 996.80 997.01 997.24 997.47 997.71 997.97 998.26 998.60 999.01 999.51 1000.08 1000.71 1001.39 1002.09 1002.76 1003.38 1003.92 1004.35 1004.65 1004.82 1004.85 1004.76 1004.55 1004.24 1003.83 1003.36 1002.82 1002.24 1001.61 1000.96 1000.28 999.57 998.84 998.09 997.32
995.43 995.45 995.57 995.74 995.96 996.20 996.45 996.70 996.98 997.29 997.66 998.10 998.62 999.21 999.88 1000.59 1001.31 1002.02 1002.67 1003.25 1003.70 1004.03 1004.21 1004.26 1004.16 1003.93 1003.58 1003.13 1002.60 1001.99 1001.34 1000.64 999.91 999.15 998.37 997.58 996.78 995.97
994.45 994.48 994.59 994.78 995.01 995.26 995.54 995.83 996.15 996.50 996.91 997.39 997.93 998.56 999.24 999.97 1000.70 1001.42 1002.09 1002.67 1003.13 1003.47 1003.66 1003.70 1003.59 1003.34 1002.97 1002.47 1001.88 1001.21 1000.47 999.69 998.87 998.03 997.19 996.33 995.49 994.64
993.62 993.65 993.77 993.96 994.20 994.48 994.78 995.11 995.48 995.88 996.34 996.85 997.43 998.07 998.76 999.48 1000.20 1000.90 1001.55 1002.12 1002.58 1002.91 1003.10 1003.13 1003.02 1002.75 1002.34 1001.81 1001.16 1000.41 999.59 998.72 997.81 996.88 995.96 995.05 994.17 993.31
992.98 993.00 993.11 993.30 993.55 993.84 994.18 994.55 994.95 995.40 995.90 996.44 997.04 997.68 998.36 999.05 999.74 1000.40 1001.01 1001.55 1001.98 1002.29 1002.47 1002.50 1002.37 1002.09 1001.66 1001.09 1000.38 999.56 998.65 997.68 996.67 995.66 994.65 993.69 992.78 991.92
992.53 992.53 992.62 992.80 993.04 993.33 993.69 994.09 994.53 995.01 995.53 996.09 996.69 997.32 997.96 998.61 999.24 999.85 1000.40 1000.89 1001.28 1001.57 1001.74 1001.76 1001.64 1001.35 1000.91 1000.30 999.54 998.65 997.66 996.59 995.48 994.37 993.29 992.26 991.32 990.47
992.22 992.19 992.25 992.40 992.62 992.91 993.27 993.68 994.14 994.65 995.18 995.75 996.33 996.93 997.52 998.11 998.67 999.21 999.70 1000.13 1000.49 1000.75 1000.91 1000.94 1000.82 1000.54 1000.09 999.46 998.66 997.71 996.64 995.48 994.28 993.07 991.91 990.83 989.85 989.00
991.99 991.93 991.94 992.05 992.25 992.53 992.88 993.30 993.77 994.28 994.81 995.37 995.93 996.48 997.02 997.53 998.03 998.49 998.91 999.29 999.62 999.87 1000.03 1000.07 999.97 999.71 999.26 998.63 997.81 996.82 995.69 994.45 993.16 991.87 990.62 989.48 988.47 987.61
991.80 991.68 991.66 991.73 991.89 992.15 992.49 992.91 993.38 993.89 994.42 994.95 995.48 995.99 996.47 996.92 997.34 997.74 998.11 998.45 998.74 998.99 999.16 999.22 999.15 998.93 998.51 997.90 997.07 996.06 994.89 993.59 992.24 990.88 989.57 988.37 987.31 986.42
991.60 991.44 991.37 991.41 991.54 991.78 992.11 992.52 992.99 993.49 994.01 994.52 995.01 995.48 995.90 996.30 996.66 997.01 997.33 997.64 997.93 998.17 998.37 998.47 998.44 998.26 997.89 997.31 996.51 995.51 994.33 993.01 991.62 990.21 988.85 987.59 986.49 985.56
Thickness
5492 5485 5478 5474 5465 5457 5449 5441 5432 5432 5440 5436 5428 5426 5419 5414 5411 5407 5405 5402 5400 5399 5397 5396 5395 5394 5394 5394 5394 5395 5396 5398 5399 5401 5404 5407 5410 5414
5486 5478 5473 5467 5458 5450 5442 5433 5426 5422 5427 5429 5422 5415 5409 5405 5399 5396 5393 5390 5388 5387 5385 5384 5383 5382 5381 5381 5381 5381 5382 5383 5384 5386 5387 5389 5392 5395
5478 5472 5467 5459 5451 5442 5434 5426 5419 5412 5413 5418 5408 5403 5396 5391 5388 5384 5381 5378 5376 5374 5372 5371 5370 5369 5368 5368 5367 5367 5367 5368 5368 5369 5370 5371 5373 5376
5471 5464 5459 5450 5443 5435 5427 5420 5413 5406 5402 5403 5397 5390 5385 5380 5375 5371 5369 5366 5364 5362 5360 5359 5359 5357 5356 5355 5354 5354 5353 5352 5352 5352 5353 5354 5355 5355
5463 5456 5451 5441 5436 5428 5420 5413 5406 5399 5393 5390 5388 5380 5374 5368 5363 5359 5357 5354 5352 5350 5349 5348 5347 5346 5344 5343 5341 5340 5339 5338 5337 5336 5335 5335 5335 5336
5454 5449 5443 5435 5428 5420 5412 5406 5397 5390 5383 5379 5376 5370 5364 5357 5351 5348 5345 5343 5341 5339 5338 5336 5335 5334 5332 5330 5328 5327 5325 5323 5322 5320 5319 5318 5318 5318
5444 5439 5434 5427 5420 5411 5404 5396 5387 5380 5373 5368 5365 5360 5355 5347 5343 5338 5335 5333 5331 5328 5325 5324 5322 5321 5318 5315 5313 5311 5310 5308 5307 5306 5305 5303 5302 5302
5434 5429 5423 5417 5412 5407 5401 5393 5382 5372 5365 5359 5356 5352 5348 5341 5333 5327 5323 5319 5320 5319 5313 5315 5310 5309 5306 5303 5300 5298 5297 5296 5294 5293 5291 5289 5288 5287
5424 5419 5413 5408 5402 5396 5391 5386 5380 5373 5363 5352 5349 5346 5339 5333 5324 5318 5313 5311 5312 5308 5301 5305 5300 5299 5297 5294 5290 5288 5286 5284 5282 5280 5278 5276 5275 5274
5415 5409 5403 5398 5392 5384 5378 5372 5368 5362 5356 5349 5344 5337 5330 5323 5315 5310 5305 5302 5301 5297 5290 5292 5292 5289 5289 5285 5280 5277 5274 5272 5270 5268 5266 5265 5263 5262
5404 5398 5392 5387 5382 5376 5368 5362 5357 5352 5346 5340 5336 5330 5323 5316 5308 5300 5295 5291 5293 5291 5282 5279 5281 5279 5279 5277 5272 5266 5263 5260 5258 5256 5254 5253 5252 5251
5393 5387 5384 5377 5371 5366 5359 5353 5348 5342 5334 5328 5324 5320 5315 5309 5303 5296 5290 5285 5284 5281 5275 5268 5267 5262 5267 5271 5264 5257 5252 5248 5246 5244 5243 5243 5242 5241
5382 5376 5371 5367 5364 5358 5351 5344 5340 5332 5325 5318 5313 5308 5303 5298 5293 5288 5282 5277 5274 5272 5266 5258 5255 5250 5248 5257 5256 5249 5243 5240 5237 5236 5234 5234 5234 5235
5372 5366 5361 5358 5353 5348 5343 5338 5331 5324 5316 5310 5304 5300 5295 5290 5285 5279 5274 5269 5266 5263 5258 5250 5245 5242 5239 5242 5246 5244 5237 5232 5230 5230 5229 5228 5230 5232
5361 5357 5352 5348 5343 5338 5333 5328 5322 5315 5309 5303 5298 5294 5288 5283 5276 5270 5265 5260 5257 5253 5248 5242 5237 5234 5230 5231 5235 5234 5231 5230 5225 5224 5224 5224 5226 5229
5348 5345 5342 5337 5331 5327 5322 5317 5312 5306 5301 5296 5291 5286 5279 5273 5267 5262 5257 5252 5248 5247 5241 5236 5231 5227 5225 5224 5223 5226 5224 5223 5223 5220 5220 5223 5225 5228
5339 5333 5326 5321 5318 5314 5311 5306 5301 5296 5293 5288 5282 5277 5271 5266 5261 5255 5249 5245 5241 5239 5235 5230 5225 5222 5220 5217 5218 5220 5219 5219 5218 5217 5217 5223 5228 5229
5332 5324 5317 5312 5308 5305 5302 5298 5293 5288 5284 5279 5275 5270 5265 5260 5254 5249 5243 5239 5236 5234 5229 5224 5219 5216 5215 5216 5214 5215 5215 5216 5216 5215 5215 5219 5229 5233
5322 5316 5310 5304 5300 5297 5293 5289 5285 5281 5276 5271 5267 5262 5258 5253 5248 5243 5239 5235 5231 5228 5224 5219 5214 5210 5212 5216 5216 5213 5211 5213 5213 5215 5216 5218 5226 5235
5312 5307 5302 5298 5293 5289 5285 5282 5278 5273 5268 5264 5260 5255 5250 5246 5242 5238 5234 5229 5226 5223 5220 5215 5210 5207 5206 5210 5214 5214 5209 5208 5210 5214 5217 5221 5227 5236
5305 5300 5295 5291 5287 5283 5279 5275 5271 5266 5262 5257 5252 5247 5242 5238 5235 5232 5228 5226 5222 5219 5216 5214 5211 5208 5205 5203 5207 5214 5211 5209 5209 5211 5216 5221 5229 5240
5299 5294 5289 5284 5280 5277 5273 5269 5264 5259 5255 5250 5245 5241 5236 5232 5229 5226 5223 5220 5217 5215 5213 5211 5207 5203 5200 5200 5204 5209 5211 5212 5212 5214 5218 5223 5228 5242
5293 5288 5283 5279 5275 5270 5266 5262 5257 5253 5249 5244 5239 5235 5230 5227 5224 5221 5218 5216 5213 5211 5209 5206 5204 5201 5200 5200 5201 5204 5206 5210 5213 5218 5225 5230 5238 5248